(°C)
17°
16°
16°
17°
19°
21°
23°
(°C)
18°
18°
18°
19°
20°
22°
24°
JV
JV
JV
JV
JV
JV
JV
(km/h)
2-2
2-2
2-2
3-3
3-4
4-7
7-12
(mm)
0
0
0
0
0
0
0
(%)
2
1
1
1
0
0
0

Sluneční výška

/ -23.3°
sun-icon
UV 6
05:42
20:15
Ubývající měsíc (240°)
00:38
09:54

METAR pro Wilmington Manor (KILG)

Čas Podmínky Teplota/
Rosný bod
Vítr Viditelnost Počasí Oblaky Tlak Změna Nezpracované
VFR 17.2°C / 13.9°C variable 0kt >10km - Clear 1009 - KILG 200651Z AUTO 00000KT 10SM CLR 17/14 A2982 RMK AO2 SLP098 T01720139
VFR 17.8°C / 14.4°C variable 0kt >10km - Clear 1010 - KILG 200551Z AUTO 00000KT 10SM CLR 18/14 A2983 RMK AO2 SLP101 T01780144 10250 20161 51003
VFR 17.8°C / 13.9°C variable 0kt >10km - Clear 1010 - KILG 200451Z AUTO 00000KT 10SM CLR 18/14 A2983 RMK AO2 SLP101 T01780139 402670139
VFR 17.2°C / 13.3°C 180º 6kt >10km - Clear 1010 - KILG 200351Z AUTO 18006KT 10SM CLR 17/13 A2983 RMK AO2 SLP101 T01720133
VFR 21.1°C / 13.9°C variable 0kt >10km - Clear 1009 - KILG 200251Z 00000KT 10SM CLR 21/14 A2982 RMK AO2 SLP098 T02110139 51028
VFR 21.7°C / 13.3°C 220º 4kt >10km - Clear 1009 - KILG 200151Z 22004KT 10SM CLR 22/13 A2980 RMK AO2 SLP091 T02170133
VFR 23.3°C / 14.4°C 260º 3kt >10km - Clear 1008 - KILG 200051Z 26003KT 10SM CLR 23/14 A2977 RMK AO2 SLP081 T02330144
VFR 25°C / 15°C 250º 4kt >10km - Clear 1007 - KILG 192351Z 25004KT 10SM CLR 25/15 A2974 RMK AO2 SLP070 T02500150 10267 20228 53011
VFR 26.1°C / 16.1°C 300º 9kt >10km - Clear 1006 - KILG 192251Z 30009KT 10SM CLR 26/16 A2972 RMK AO2 SLP064 T02610161
VFR 25°C / 16.1°C 260º 7kt >10km - Scattered Clouds 6000ft
Broken Clouds 7000ft
Broken Clouds 9000ft
1006 - KILG 192151Z 26007KT 10SM SCT060 BKN070 BKN090 25/16 A2972 RMK AO2 SLP063 T02500161
VFR 26.7°C / 17.2°C 220º 10kt >10km - Few Clouds 6000ft
Few Clouds 7000ft
Broken Clouds 9000ft
1005 - KILG 192051Z 22010KT 10SM FEW060 FEW070 BKN090 27/17 A2971 RMK AO2 SLP059 T02670172 58013
VFR 25.6°C / 16.7°C 240º 9kt >10km - Scattered Clouds 4300ft
Scattered Clouds 7000ft
1006 - KILG 191951Z 24009KT 10SM SCT043 SCT070 26/17 A2972 RMK AO2 SLP064 T02560167
VFR 23.3°C / 16.1°C 220º 4kt >10km - Broken Clouds 3500ft 1006 - KILG 191851Z 22004KT 10SM BKN035 23/16 A2973 RMK AO2 SLP068 T02330161
VFR 23.3°C / 16.1°C 300º 9kt >10km - Scattered Clouds 2900ft
Broken Clouds 3500ft
1007 - KILG 191751Z 30009KT 10SM SCT029 BKN035 23/16 A2974 RMK AO2 SLP072 T02330161 10239 20150 58007
MVFR 21.7°C / 15.6°C variable 6kt >10km - Broken Clouds 2300ft 1007 - KILG 191651Z VRB06KT 10SM BKN023 22/16 A2975 RMK AO2 SLP075 T02170156
MVFR 20°C / 15°C 310º 7kt >10km - Broken Clouds 2000ft 1007 - KILG 191551Z 31007KT 10SM BKN020 20/15 A2976 RMK AO2 SLP077 T02000150
MVFR 18.9°C / 13.9°C 320º 9kt >10km - Overcast 1600ft 1007 - KILG 191451Z 32009KT 10SM OVC016 19/14 A2977 RMK AO2 SLP079 T01890139 53003
MVFR 18.3°C / 13.9°C 320º 10kt >10km - Overcast 1600ft - KILG 191419Z 32010KT 10SM OVC016 18/14 A2976 RMK AO2 T01830139
VFR 15.6°C / 14.4°C 140º 6kt >10km Light Rain 1.02mm precipitation Few Clouds 8000ft
Broken Clouds 10000ft
Overcast 12000ft
1010 - KILG 190551Z 14006KT 7SM -RA FEW080 BKN100 OVC120 16/14 A2985 RMK AO2 SLP107 P0004 60006 T01560144 10200 20156 58019 $
VFR 16.1°C / 13.9°C 110º 4kt >10km Light Rain 0.51mm precipitation Scattered Clouds 7000ft
Overcast 9500ft
1011 - KILG 190451Z 11004KT 10SM -RA SCT070 OVC095 16/14 A2987 RMK AO2 SLP115 P0002 T01610139 402280100
VFR 16.1°C / 13.9°C 130º 4kt >10km Light Rain 0.13mm precipitation Broken Clouds 7500ft
Overcast 8500ft
1012 - KILG 190351Z 13004KT 10SM -RA BKN075 OVC085 16/14 A2989 RMK AO2 RAB01E31B50 SLP120 P0000 T01610139
VFR 16.7°C / 13.3°C 160º 6kt >10km - Broken Clouds 10000ft
Overcast 12000ft
1012 - KILG 190251Z 16006KT 10SM BKN100 OVC120 17/13 A2991 RMK AO2 SLP127 T01670133 53005
VFR 17.2°C / 13.3°C 160º 7kt >10km - Broken Clouds 11000ft 1012 - KILG 190151Z 16007KT 10SM BKN110 17/13 A2991 RMK AO2 SLP126 T01720133
VFR 17.2°C / 12.2°C 160º 9kt >10km - Overcast 12000ft 1012 - KILG 190051Z 16009KT 10SM OVC120 17/12 A2989 RMK AO2 SLP121 T01720122

VFR

17.2°C / 13.9°C

[Víc]
Vítr variable 0kt
Viditelnost >10km
Počasí -
Oblaky Clear
Tlak 1009
Změna -
Nezpracované KILG 200651Z AUTO 00000KT 10SM CLR 17/14 A2982 RMK AO2 SLP098 T01720139

VFR

17.8°C / 14.4°C

[Víc]
Vítr variable 0kt
Viditelnost >10km
Počasí -
Oblaky Clear
Tlak 1010
Změna -
Nezpracované KILG 200551Z AUTO 00000KT 10SM CLR 18/14 A2983 RMK AO2 SLP101 T01780144 10250 20161 51003

VFR

17.8°C / 13.9°C

[Víc]
Vítr variable 0kt
Viditelnost >10km
Počasí -
Oblaky Clear
Tlak 1010
Změna -
Nezpracované KILG 200451Z AUTO 00000KT 10SM CLR 18/14 A2983 RMK AO2 SLP101 T01780139 402670139

VFR

17.2°C / 13.3°C

[Víc]
Vítr 180º 6kt
Viditelnost >10km
Počasí -
Oblaky Clear
Tlak 1010
Změna -
Nezpracované KILG 200351Z AUTO 18006KT 10SM CLR 17/13 A2983 RMK AO2 SLP101 T01720133

VFR

21.1°C / 13.9°C

[Víc]
Vítr variable 0kt
Viditelnost >10km
Počasí -
Oblaky Clear
Tlak 1009
Změna -
Nezpracované KILG 200251Z 00000KT 10SM CLR 21/14 A2982 RMK AO2 SLP098 T02110139 51028

VFR

21.7°C / 13.3°C

[Víc]
Vítr 220º 4kt
Viditelnost >10km
Počasí -
Oblaky Clear
Tlak 1009
Změna -
Nezpracované KILG 200151Z 22004KT 10SM CLR 22/13 A2980 RMK AO2 SLP091 T02170133

VFR

23.3°C / 14.4°C

[Víc]
Vítr 260º 3kt
Viditelnost >10km
Počasí -
Oblaky Clear
Tlak 1008
Změna -
Nezpracované KILG 200051Z 26003KT 10SM CLR 23/14 A2977 RMK AO2 SLP081 T02330144

VFR

25°C / 15°C

[Víc]
Vítr 250º 4kt
Viditelnost >10km
Počasí -
Oblaky Clear
Tlak 1007
Změna -
Nezpracované KILG 192351Z 25004KT 10SM CLR 25/15 A2974 RMK AO2 SLP070 T02500150 10267 20228 53011

VFR

26.1°C / 16.1°C

[Víc]
Vítr 300º 9kt
Viditelnost >10km
Počasí -
Oblaky Clear
Tlak 1006
Změna -
Nezpracované KILG 192251Z 30009KT 10SM CLR 26/16 A2972 RMK AO2 SLP064 T02610161

VFR

25°C / 16.1°C

[Víc]
Vítr 260º 7kt
Viditelnost >10km
Počasí -
Oblaky Scattered Clouds 6000ft
Broken Clouds 7000ft
Broken Clouds 9000ft
Tlak 1006
Změna -
Nezpracované KILG 192151Z 26007KT 10SM SCT060 BKN070 BKN090 25/16 A2972 RMK AO2 SLP063 T02500161

VFR

26.7°C / 17.2°C

[Víc]
Vítr 220º 10kt
Viditelnost >10km
Počasí -
Oblaky Few Clouds 6000ft
Few Clouds 7000ft
Broken Clouds 9000ft
Tlak 1005
Změna -
Nezpracované KILG 192051Z 22010KT 10SM FEW060 FEW070 BKN090 27/17 A2971 RMK AO2 SLP059 T02670172 58013

VFR

25.6°C / 16.7°C

[Víc]
Vítr 240º 9kt
Viditelnost >10km
Počasí -
Oblaky Scattered Clouds 4300ft
Scattered Clouds 7000ft
Tlak 1006
Změna -
Nezpracované KILG 191951Z 24009KT 10SM SCT043 SCT070 26/17 A2972 RMK AO2 SLP064 T02560167

VFR

23.3°C / 16.1°C

[Víc]
Vítr 220º 4kt
Viditelnost >10km
Počasí -
Oblaky Broken Clouds 3500ft
Tlak 1006
Změna -
Nezpracované KILG 191851Z 22004KT 10SM BKN035 23/16 A2973 RMK AO2 SLP068 T02330161

VFR

23.3°C / 16.1°C

[Víc]
Vítr 300º 9kt
Viditelnost >10km
Počasí -
Oblaky Scattered Clouds 2900ft
Broken Clouds 3500ft
Tlak 1007
Změna -
Nezpracované KILG 191751Z 30009KT 10SM SCT029 BKN035 23/16 A2974 RMK AO2 SLP072 T02330161 10239 20150 58007

MVFR

21.7°C / 15.6°C

[Víc]
Vítr variable 6kt
Viditelnost >10km
Počasí -
Oblaky Broken Clouds 2300ft
Tlak 1007
Změna -
Nezpracované KILG 191651Z VRB06KT 10SM BKN023 22/16 A2975 RMK AO2 SLP075 T02170156

MVFR

20°C / 15°C

[Víc]
Vítr 310º 7kt
Viditelnost >10km
Počasí -
Oblaky Broken Clouds 2000ft
Tlak 1007
Změna -
Nezpracované KILG 191551Z 31007KT 10SM BKN020 20/15 A2976 RMK AO2 SLP077 T02000150

MVFR

18.9°C / 13.9°C

[Víc]
Vítr 320º 9kt
Viditelnost >10km
Počasí -
Oblaky Overcast 1600ft
Tlak 1007
Změna -
Nezpracované KILG 191451Z 32009KT 10SM OVC016 19/14 A2977 RMK AO2 SLP079 T01890139 53003

MVFR

18.3°C / 13.9°C

[Víc]
Vítr 320º 10kt
Viditelnost >10km
Počasí -
Oblaky Overcast 1600ft
Tlak
Změna -
Nezpracované KILG 191419Z 32010KT 10SM OVC016 18/14 A2976 RMK AO2 T01830139

VFR

15.6°C / 14.4°C

[Víc]
Vítr 140º 6kt
Viditelnost >10km
Počasí Light Rain 1.02mm precipitation
Oblaky Few Clouds 8000ft
Broken Clouds 10000ft
Overcast 12000ft
Tlak 1010
Změna -
Nezpracované KILG 190551Z 14006KT 7SM -RA FEW080 BKN100 OVC120 16/14 A2985 RMK AO2 SLP107 P0004 60006 T01560144 10200 20156 58019 $

VFR

16.1°C / 13.9°C

[Víc]
Vítr 110º 4kt
Viditelnost >10km
Počasí Light Rain 0.51mm precipitation
Oblaky Scattered Clouds 7000ft
Overcast 9500ft
Tlak 1011
Změna -
Nezpracované KILG 190451Z 11004KT 10SM -RA SCT070 OVC095 16/14 A2987 RMK AO2 SLP115 P0002 T01610139 402280100

VFR

16.1°C / 13.9°C

[Víc]
Vítr 130º 4kt
Viditelnost >10km
Počasí Light Rain 0.13mm precipitation
Oblaky Broken Clouds 7500ft
Overcast 8500ft
Tlak 1012
Změna -
Nezpracované KILG 190351Z 13004KT 10SM -RA BKN075 OVC085 16/14 A2989 RMK AO2 RAB01E31B50 SLP120 P0000 T01610139

VFR

16.7°C / 13.3°C

[Víc]
Vítr 160º 6kt
Viditelnost >10km
Počasí -
Oblaky Broken Clouds 10000ft
Overcast 12000ft
Tlak 1012
Změna -
Nezpracované KILG 190251Z 16006KT 10SM BKN100 OVC120 17/13 A2991 RMK AO2 SLP127 T01670133 53005

VFR

17.2°C / 13.3°C

[Víc]
Vítr 160º 7kt
Viditelnost >10km
Počasí -
Oblaky Broken Clouds 11000ft
Tlak 1012
Změna -
Nezpracované KILG 190151Z 16007KT 10SM BKN110 17/13 A2991 RMK AO2 SLP126 T01720133

VFR

17.2°C / 12.2°C

[Víc]
Vítr 160º 9kt
Viditelnost >10km
Počasí -
Oblaky Overcast 12000ft
Tlak 1012
Změna -
Nezpracované KILG 190051Z 16009KT 10SM OVC120 17/12 A2989 RMK AO2 SLP121 T01720122

TAF pro Wilmington Manor (KILG)

From till


From till Wind variable 3kt. Visibility 10km or more. Scattered Clouds 25000ft.
From till Wind 120º 6kt. Visibility 10km or more. Scattered Clouds 25000ft.
From till Wind 150º 10kt. Visibility 10km or more. Few Clouds 5000ft. Broken Clouds 25000ft.
From till Wind 180º 10kt. Gust 18kt. Visibility 10km or more. Broken Clouds 10000ft.
From till Wind 170º 6kt. Visibility 10km or more. Scattered Clouds 10000ft.

Nezpracované: KILG 200539Z 2006/2106 VRB03KT P6SM SCT250 FM201200 12006KT P6SM SCT250 FM201700 15010KT P6SM FEW050 BKN250 FM202100 18010G18KT P6SM BKN100 FM202300 17006KT P6SM SCT100

Radar a krátkodobá předpověď srážek pro Wilmington Manor

Mrholení
Slabé
Střední
Silné
Velmi silné
Kroupy

Značka lokality je umístněna na Wilmington Manor. Tato animace ukazuje srážky zaznamenané radarem za poslední hodinu a také 1h předpověď. Mrholení nebo slabé sněžení může být pro radar neviditelné. Intenzita srážek je barevně označena od světle modré po oranžovou.

Aktuální snímky ze satelitu pro Wilmington Manor, Spojené státy americké

Značka polohy je umístěna na Wilmington Manor. [Víc]

Satelitní snímek v reálném čase kombinuje viditelné světlo během dne s infračerveným zářením během noci. V noci není obraz tmavý, protože infračervené záření dokáže detekovat teplotní rozdíly. Nízká oblačnost a mlha se bohužel těžko odlišují od pozemních teplot, a proto mohou být během noci téměř neviditelné. Satelitní snímky z Meteosatu pro Evropu jsou aktualizovány v reálném čase každých 5 minut. Snímky z GOES-16/GOES-17 (Severní a Jižní Amerika) a Himawari (Asie) jsou aktualizovány) každých 10 minut.

Zpět nahoru